TimeCDT,TemperatureF,Dew PointF,Humidity,Sea Level PressureIn,VisibilityMPH,Wind Direction,Wind SpeedMPH,Gust SpeedMPH,PrecipitationIn,Events,Conditions,WindDirDegrees,DateUTC
12:53 AM,72.0,61.0,68,30.07,10.0,ESE,5.8,-,N/A,,Clear,120,2013-08-26 05:53:00
1:53 AM,71.1,61.0,70,30.07,10.0,ESE,6.9,-,N/A,,Clear,120,2013-08-26 06:53:00
2:53 AM,70.0,60.1,71,30.07,10.0,ESE,6.9,-,N/A,,Partly Cloudy,120,2013-08-26 07:53:00
3:53 AM,69.1,60.1,73,30.07,10.0,ESE,5.8,-,N/A,,Partly Cloudy,120,2013-08-26 08:53:00
4:53 AM,66.9,60.1,79,30.07,10.0,ESE,4.6,-,N/A,,Partly Cloudy,120,2013-08-26 09:53:00
5:53 AM,66.9,60.1,79,30.09,10.0,ESE,4.6,-,N/A,,Partly Cloudy,120,2013-08-26 10:53:00
6:53 AM,66.9,60.1,79,30.09,10.0,ESE,4.6,-,N/A,,Partly Cloudy,120,2013-08-26 11:53:00
7:53 AM,66.9,60.1,79,30.10,10.0,ESE,4.6,-,N/A,,Clear,120,2013-08-26 12:53:00
8:53 AM,73.9,61.0,64,30.11,10.0,South,6.9,-,N/A,,Clear,170,2013-08-26 13:53:00
9:53 AM,79.0,62.1,56,30.12,10.0,South,11.5,-,N/A,,Clear,180,2013-08-26 14:53:00
10:53 AM,81.0,62.1,52,30.12,10.0,SSE,11.5,19.6,N/A,,Scattered Clouds,160,2013-08-26 15:53:00
11:53 AM,82.0,60.1,47,30.12,10.0,SSE,12.7,-,N/A,,Scattered Clouds,160,2013-08-26 16:53:00
12:53 PM,82.9,60.1,46,30.10,10.0,South,8.1,18.4,N/A,,Mostly Cloudy,180,2013-08-26 17:53:00
1:53 PM,86.0,60.1,41,30.08,10.0,ESE,10.4,-,N/A,,Mostly Cloudy,120,2013-08-26 18:53:00
2:53 PM,88.0,59.0,37,30.06,10.0,SE,9.2,-,N/A,,Scattered Clouds,140,2013-08-26 19:53:00
3:53 PM,86.0,57.9,38,30.04,10.0,Variable,3.5,-,N/A,,Scattered Clouds,0,2013-08-26 20:53:00
4:53 PM,86.0,59.0,40,30.03,10.0,ESE,11.5,17.3,N/A,,Scattered Clouds,110,2013-08-26 21:53:00
5:53 PM,88.0,57.0,35,30.01,10.0,ESE,15.0,-,N/A,,Partly Cloudy,120,2013-08-26 22:53:00
6:53 PM,87.1,55.9,35,30.02,10.0,SE,11.5,-,N/A,,Partly Cloudy,130,2013-08-26 23:53:00
7:53 PM,84.9,55.9,37,30.01,10.0,SE,11.5,-,N/A,,Partly Cloudy,140,2013-08-27 00:53:00
8:53 PM,82.0,57.9,44,30.01,10.0,SE,10.4,-,N/A,,Scattered Clouds,130,2013-08-27 01:53:00
9:53 PM,77.0,57.9,52,30.02,10.0,ESE,6.9,-,N/A,,Clear,120,2013-08-27 02:53:00
10:53 PM,73.0,57.9,59,30.03,10.0,ESE,6.9,-,N/A,,Clear,120,2013-08-27 03:53:00
11:53 PM,72.0,59.0,64,30.03,10.0,ESE,8.1,-,N/A,,Clear,120,2013-08-27 04:53:00